CW6734 Weather Reports


Display with metric or nautical units.
time (UTC)temp
F
wind
direction
speed
MPH
gust
MPH
rain 1hr
in
rain 24hr
in
rain mn
in
humidity
%
barometer
mb
20181020010202 50 266 0.0 1.0 0.00 0.00 0.00 90 1014.3
20181020004643 50 109 0.0 2.0 0.00 0.00 0.00 90 1014.1
20181020003439 50 234 0.0 6.0 0.00 0.00 0.00 90 1014.1
20181020003140 51 296 0.0 6.0 0.00 0.00 0.00 90 1014.1
20181020002827 51 186 0.0 2.0 0.00 0.00 0.00 90 1014.0
20181020002205 51 196 0.0 4.0 0.00 0.00 0.00 90 1014.2
20181020001858 51 196 0.0 4.0 0.00 0.00 0.00 90 1014.1
20181020000949 52 320 0.0 0.0 0.00 0.00 0.00 90 1014.1
20181020000336 52 234 1.0 8.0 0.00 0.00 0.00 90 1014.4
20181019235720 52 249 1.0 8.0 0.00 0.00 0.00 90 1014.5
20181019235417 52 150 1.0 5.0 0.00 0.00 0.00 90 1014.6
20181019235106 52 314 0.0 5.0 0.00 0.00 0.00 89 1014.4
20181019234801 53 250 0.0 5.0 0.00 0.00 0.00 90 1014.6
20181019234454 53 249 0.0 5.0 0.00 0.00 0.00 90 1014.5
20181019234147 53 211 0.0 5.0 0.00 0.00 0.00 90 1014.5
20181019233533 53 264 0.0 5.0 0.00 0.00 0.00 88 1014.4
20181019233234 53 200 0.0 2.0 0.00 0.00 0.00 88 1014.4
20181019232934 53 200 0.0 4.0 0.00 0.00 0.00 89 1014.4
20181019232637 53 232 0.0 4.0 0.00 0.00 0.00 88 1014.5
20181019231707 53 249 0.0 5.0 0.00 0.00 0.00 86 1014.4
20181019231357 53 250 0.0 5.0 0.00 0.00 0.00 85 1014.4
20181019231044 53 230 1.0 5.0 0.00 0.00 0.00 84 1014.6
20181019230138 53 252 1.0 5.0 0.00 0.00 0.00 83 1014.8
20181019225840 54 271 0.0 3.0 0.00 0.00 0.00 85 1014.9
20181019225530 54 250 0.0 3.0 0.00 0.00 0.00 84 1015.0
20181019225233 54 287 0.0 3.0 0.00 0.00 0.00 83 1015.2
20181019224920 54 274 0.0 7.0 0.00 0.00 0.00 83 1015.2
20181019224622 54 296 0.0 7.0 0.00 0.00 0.00 82 1015.0
20181019224009 54 290 0.0 7.0 0.00 0.00 0.00 81 1014.8
20181019223656 54 227 1.0 7.0 0.00 0.00 0.00 82 1014.8
20181019223347 54 242 1.0 7.0 0.00 0.00 0.00 82 1014.8
20181019222444 54 289 0.0 5.0 0.00 0.00 0.00 80 1014.9
20181019222143 54 208 0.0 2.0 0.00 0.00 0.00 79 1014.8
20181019221844 54 238 0.0 2.0 0.00 0.00 0.00 79 1014.9
20181019221533 54 275 0.0 3.0 0.00 0.00 0.00 78 1014.8
20181019221233 54 283 0.0 3.0 0.00 0.00 0.00 80 1014.7
20181019220638 54 214 0.0 4.0 0.00 0.00 0.00 78 1014.7
20181019220335 54 226 0.0 4.0 0.00 0.00 0.00 79 1014.7
20181019220036 54 215 0.0 4.0 0.00 0.00 0.00 80 1014.8
20181019215725 54 217 0.0 4.0 0.00 0.00 0.00 77 1014.9
20181019215115 55 251 0.0 4.0 0.00 0.00 0.00 76 1015.0
20181019214802 55 230 1.0 4.0 0.00 0.00 0.00 76 1015.1
20181019214506 55 218 1.0 3.0 0.00 0.00 0.00 76 1015.1
20181019214156 55 232 0.0 3.0 0.00 0.00 0.00 76 1015.3
20181019213535 55 256 0.0 4.0 0.00 0.00 0.00 75 1015.3
20181019211959 55 288 1.0 6.0 0.00 0.00 0.00 74 1015.1
20181019211700 55 212 1.0 8.0 0.00 0.00 0.00 71 1015.2
20181019210425 56 238 1.0 9.0 0.00 0.00 0.00 70 1015.4
20181019210112 56 336 0.0 9.0 0.00 0.00 0.00 71 1015.4
20181019205504 56 292 1.0 9.0 0.00 0.00 0.00 70 1015.9
20181019205203 56 286 2.0 9.0 0.00 0.00 0.00 69 1016.2
20181019204857 56 221 2.0 6.0 0.00 0.00 0.00 71 1016.4
20181019204554 56 287 1.0 5.0 0.00 0.00 0.00 70 1016.2
20181019203954 56 281 1.0 5.0 0.00 0.00 0.00 70 1016.2
20181019203645 56 262 1.0 7.0 0.00 0.00 0.00 69 1016.3
20181019203032 56 288 1.0 7.0 0.00 0.00 0.00 71 1016.4
20181019202729 56 283 1.0 7.0 0.00 0.00 0.00 70 1016.3
20181019202127 56 248 1.0 7.0 0.00 0.00 0.00 68 1016.6
20181019201820 56 310 1.0 7.0 0.00 0.00 0.00 69 1016.6
20181019201519 57 211 1.0 6.0 0.00 0.00 0.00 71 1016.6
20181019201217 57 290 1.0 6.0 0.00 0.00 0.00 69 1016.7
20181019200557 57 270 1.0 4.0 0.00 0.00 0.00 70 1016.8
20181019195953 57 292 1.0 5.0 0.00 0.00 0.00 72 1017.1
20181019195655 57 292 1.0 5.0 0.00 0.00 0.00 71 1017.2
20181019195056 57 288 0.0 5.0 0.00 0.00 0.00 72 1017.3
20181019194455 57 202 0.0 5.0 0.00 0.00 0.00 74 1017.5
20181019193533 57 281 1.0 5.0 0.00 0.00 0.00 75 1017.6
20181019193225 57 182 1.0 7.0 0.00 0.00 0.00 71 1017.6
20181019192914 57 309 1.0 7.0 0.00 0.00 0.00 74 1017.7
20181019192618 57 242 1.0 7.0 0.00 0.00 0.00 73 1017.7
20181019192308 57 265 1.0 9.0 0.00 0.00 0.00 73 1017.5
20181019192009 57 234 1.0 9.0 0.00 0.00 0.00 74 1017.6
20181019191409 57 178 1.0 9.0 0.00 0.00 0.00 73 1017.9
20181019191111 57 244 1.0 9.0 0.00 0.00 0.00 72 1018.0
20181019190813 57 288 1.0 9.0 0.00 0.00 0.00 75 1018.3
20181019190202 56 270 1.0 7.0 0.00 0.00 0.00 74 1018.4
20181019185545 57 286 1.0 10.0 0.00 0.00 0.00 71 1018.4
20181019184934 57 222 1.0 10.0 0.00 0.00 0.00 72 1018.6
20181019184626 57 287 1.0 10.0 0.00 0.00 0.00 75 1018.8
20181019184322 57 34 1.0 10.0 0.00 0.00 0.00 71 1018.7
20181019183358 57 184 2.0 8.0 0.00 0.00 0.00 68 1019.1
20181019183058 57 347 2.0 8.0 0.00 0.00 0.00 69 1019.2
20181019182749 57 283 2.0 8.0 0.00 0.00 0.00 69 1019.2
20181019182129 57 283 2.0 8.0 0.00 0.00 0.00 68 1019.2
20181019181829 57 203 2.0 7.0 0.00 0.00 0.00 70 1019.1
20181019181216 57 85 2.0 7.0 0.00 0.00 0.00 72 1019.1
20181019180558 56 290 2.0 8.0 0.00 0.00 0.00 71 1019.2
20181019175039 56 279 2.0 12.0 0.00 0.00 0.00 69 1019.7
20181019174137 57 175 3.0 12.0 0.00 0.00 0.00 68 1020.2
20181019173828 57 278 2.0 8.0 0.00 0.00 0.00 69 1020.3
20181019173517 57 146 2.0 8.0 0.00 0.00 0.00 70 1020.4
20181019173219 57 244 2.0 9.0 0.00 0.00 0.00 71 1020.6
20181019172908 56 215 2.0 9.0 0.00 0.00 0.00 68 1020.7
20181019172605 56 233 2.0 9.0 0.00 0.00 0.00 69 1020.7
20181019172000 56 221 2.0 9.0 0.00 0.00 0.00 69 1020.9
20181019171702 56 289 2.0 9.0 0.00 0.00 0.00 72 1021.1
20181019171355 56 200 2.0 9.0 0.00 0.00 0.00 71 1021.1
20181019165837 55 285 2.0 7.0 0.00 0.00 0.00 71 1021.4
20181019165525 55 194 2.0 7.0 0.00 0.00 0.00 71 1021.5
20181019164607 55 154 2.0 9.0 0.00 0.00 0.00 72 1022.0
20181019164302 55 185 2.0 9.0 0.00 0.00 0.00 71 1022.1
20181019163357 55 175 2.0 9.0 0.00 0.00 0.00 72 1022.1
20181019163056 55 302 2.0 9.0 0.00 0.00 0.00 74 1022.2
20181019162752 54 203 3.0 9.0 0.00 0.00 0.00 74 1022.5
20181019162453 54 286 2.0 8.0 0.00 0.00 0.00 76 1022.7
20181019161839 54 277 2.0 8.0 0.00 0.00 0.00 75 1023.1
20181019161531 54 279 2.0 8.0 0.00 0.00 0.00 76 1023.1
20181019160910 53 278 1.0 7.0 0.00 0.00 0.00 79 1023.5
20181019160612 53 269 2.0 7.0 0.00 0.00 0.00 79 1023.3
20181019160302 53 183 1.0 6.0 0.00 0.00 0.00 78 1023.4
20181019154741 52 281 2.0 7.0 0.00 0.00 0.00 83 1023.5
20181019154443 52 242 2.0 7.0 0.00 0.00 0.00 80 1023.6
20181019153825 51 284 2.0 6.0 0.00 0.00 0.00 81 1023.7
20181019153522 51 231 1.0 7.0 0.00 0.00 0.00 84 1023.5
20181019153217 51 78 1.0 7.0 0.00 0.00 0.00 86 1023.6
20181019152918 50 279 1.0 7.0 0.00 0.00 0.00 87 1023.8
20181019152619 50 281 1.0 7.0 0.00 0.00 0.00 86 1023.9
20181019152315 50 323 1.0 7.0 0.00 0.00 0.00 87 1024.1
20181019152016 49 284 1.0 7.0 0.00 0.00 0.00 89 1024.2
20181019151716 49 206 1.0 6.0 0.00 0.00 0.00 88 1024.2
20181019151100 48 167 1.0 6.0 0.00 0.00 0.00 88 1024.3
20181019150804 48 199 0.0 6.0 0.00 0.00 0.00 89 1024.3
20181019145239 46 275 0.0 2.0 0.00 0.00 0.00 90 1024.8
20181019144935 45 275 0.0 2.0 0.00 0.00 0.00 90 1024.8
20181019144323 44 275 0.0 5.0 0.00 0.00 0.00 90 1024.8
20181019143713 44 275 0.0 5.0 0.00 0.00 0.00 90 1025.2
20181019143412 44 229 0.0 5.0 0.00 0.00 0.00 90 1025.1
20181019143116 44 213 0.0 5.0 0.00 0.00 0.00 90 1025.0
20181019141535 44 232 0.0 3.0 0.00 0.00 0.00 90 1025.3
20181019141233 44 232 0.0 3.0 0.00 0.00 0.00 90 1025.4
20181019140936 43 274 0.0 3.0 0.00 0.00 0.00 90 1025.4
20181019140629 43 194 0.0 3.0 0.00 0.00 0.00 89 1025.6
20181019140325 42 161 0.0 3.0 0.00 0.00 0.00 82 1025.8
20181019140022 42 288 0.0 2.0 0.00 0.00 0.00 72 1025.9
20181019135118 39 288 0.0 2.0 0.00 0.00 0.00 21 1026.1
20181019134502 38 288 0.0 1.0 0.00 0.00 0.00 21 1026.1
20181019133528 36 288 0.0 0.0 0.00 0.00 0.00 21 1026.2
20181019133224 36 288 0.0 2.0 0.00 0.00 0.00 21 1026.2
20181019132918 36 288 0.0 2.0 0.00 0.00 0.00 21 1026.2
20181019132613 35 288 0.0 0.0 0.00 0.00 0.00 21 1026.2
20181019132315 35 288 0.0 0.0 0.00 0.00 0.00 21 1026.2
20181019132007 35 288 0.0 0.0 0.00 0.00 0.00 21 1026.2
20181019131707 34 288 0.0 0.0 0.00 0.00 0.00 21 1026.2
20181019130458 32 288 0.0 0.0 0.00 0.00 0.00 21 1026.5
20181019130150 32 288 0.0 0.0 0.00 0.00 0.00 21 1026.5
20181019125839 32 288 0.0 0.0 0.00 0.00 0.00 21 1026.4
20181019125224 31 288 0.0 0.0 0.00 0.00 0.00 21 1026.6
20181019124910 31 288 0.0 0.0 0.00 0.00 0.00 21 1026.4
20181019124256 31 288 0.0 0.0 0.00 0.00 0.00 21 1026.5
20181019124000 31 288 0.0 0.0 0.00 0.00 0.00 21 1026.7
20181019123701 30 288 0.0 0.0 0.00 0.00 0.00 21 1026.5
20181019123045 30 288 0.0 0.0 0.00 0.00 0.00 21 1026.6
20181019122127 30 288 0.0 0.0 0.00 0.00 0.00 23 1026.4
20181019121518 30 288 0.0 0.0 0.00 0.00 0.00 23 1026.4
20181019121214 30 288 0.0 0.0 0.00 0.00 0.00 23 1026.4
20181019120604 30 288 0.0 0.0 0.00 0.00 0.00 23 1026.4
20181019120307 30 288 0.0 0.0 0.00 0.00 0.00 23 1026.4
20181019115400 30 288 0.0 0.0 0.00 0.00 0.00 23 1026.6
20181019114750 30 288 0.0 0.0 0.00 0.00 0.00 24 1026.8
20181019114454 30 288 0.0 0.0 0.00 0.00 0.00 24 1026.8
20181019113855 30 288 0.0 0.0 0.00 0.00 0.00 24 1026.9
20181019113558 30 288 0.0 0.0 0.00 0.00 0.00 24 1026.8
20181019112946 30 288 0.0 0.0 0.00 0.00 0.00 25 1026.8
20181019112639 30 288 0.0 0.0 0.00 0.00 0.00 26 1026.9
20181019112331 30 288 0.0 0.0 0.00 0.00 0.00 27 1027.0
20181019111426 30 288 0.0 0.0 0.00 0.00 0.00 27 1027.1
20181019111117 30 288 0.0 0.0 0.00 0.00 0.00 28 1027.1
20181019110807 30 288 0.0 0.0 0.00 0.00 0.00 28 1027.2
20181019110459 30 288 0.0 0.0 0.00 0.00 0.00 29 1027.1
20181019110147 30 288 0.0 0.0 0.00 0.00 0.00 29 1027.1
20181019105841 30 288 0.0 0.0 0.00 0.00 0.00 29 1027.1
20181019105532 30 288 0.0 0.0 0.00 0.00 0.00 30 1027.0
20181019105236 30 288 0.0 0.0 0.00 0.00 0.00 31 1027.1
20181019104936 30 288 0.0 0.0 0.00 0.00 0.00 31 1027.1
20181019104628 30 288 0.0 0.0 0.00 0.00 0.00 31 1027.0
20181019104328 30 288 0.0 0.0 0.00 0.00 0.00 31 1027.1
20181019104015 30 288 0.0 0.0 0.00 0.00 0.00 32 1027.1
20181019103354 30 288 0.0 0.0 0.00 0.00 0.00 32 1027.1
20181019102736 30 288 0.0 0.0 0.00 0.00 0.00 32 1027.2
20181019100620 31 288 0.0 0.0 0.00 0.00 0.00 33 1027.3
20181019094732 31 288 0.0 0.0 0.00 0.00 0.00 37 1027.5
20181019094426 31 288 0.0 0.0 0.00 0.00 0.00 37 1027.3
20181019094119 31 288 0.0 0.0 0.00 0.00 0.00 37 1027.4
20181019093805 31 288 0.0 0.0 0.00 0.00 0.00 36 1027.4
20181019093505 31 288 0.0 0.0 0.00 0.00 0.00 36 1027.4
20181019092848 31 288 0.0 0.0 0.00 0.00 0.00 37 1027.5
20181019092233 32 288 0.0 0.0 0.00 0.00 0.00 37 1027.4
20181019091616 32 288 0.0 0.0 0.00 0.00 0.00 40 1027.4
20181019091305 32 288 0.0 0.0 0.00 0.00 0.00 40 1027.6
20181019090655 32 288 0.0 0.0 0.00 0.00 0.00 41 1027.4
20181019090353 32 288 0.0 0.0 0.00 0.00 0.00 41 1027.5
20181019085456 32 288 0.0 0.0 0.00 0.00 0.00 42 1027.5
20181019085150 32 288 0.0 0.0 0.00 0.00 0.00 42 1027.5
20181019084839 32 288 0.0 0.0 0.00 0.00 0.00 41 1027.6
20181019084236 32 288 0.0 0.0 0.00 0.00 0.00 43 1027.6
20181019083928 32 288 0.0 0.0 0.00 0.00 0.00 43 1027.6
20181019083622 33 288 0.0 0.0 0.00 0.00 0.00 42 1027.7
20181019083315 33 288 0.0 0.0 0.00 0.00 0.00 41 1027.7
20181019083010 33 288 0.0 0.0 0.00 0.00 0.00 41 1027.7
20181019082351 32 288 0.0 0.0 0.00 0.00 0.00 39 1027.8
20181019082047 32 288 0.0 0.0 0.00 0.00 0.00 39 1027.9
20181019081750 32 288 0.0 0.0 0.00 0.00 0.00 39 1027.9
20181019081144 32 288 0.0 0.0 0.00 0.00 0.00 40 1027.8
20181019080846 32 288 0.0 0.0 0.00 0.00 0.00 39 1027.8
20181019080533 32 288 0.0 0.0 0.00 0.00 0.00 37 1027.8
20181019080229 32 288 0.0 0.0 0.00 0.00 0.00 36 1027.8
20181019075930 32 288 0.0 0.0 0.00 0.00 0.00 37 1027.9
20181019075629 32 288 0.0 0.0 0.00 0.00 0.00 38 1028.0
20181019075331 32 288 0.0 0.0 0.00 0.00 0.00 39 1027.9
20181019075029 32 288 0.0 0.0 0.00 0.00 0.00 39 1027.9
20181019074732 32 288 0.0 0.0 0.00 0.00 0.00 40 1027.9
20181019074419 32 288 0.0 0.0 0.00 0.00 0.00 42 1028.0
20181019074120 32 288 0.0 0.0 0.00 0.00 0.00 44 1027.9
20181019073506 32 288 0.0 0.0 0.00 0.00 0.00 48 1027.9
20181019073155 33 288 0.0 0.0 0.00 0.00 0.00 51 1028.0
20181019072855 33 288 0.0 0.0 0.00 0.00 0.00 54 1028.0
20181019072231 33 288 0.0 0.0 0.00 0.00 0.00 58 1027.9
20181019071935 33 288 0.0 0.0 0.00 0.00 0.00 59 1028.0
20181019070413 33 288 0.0 0.0 0.00 0.00 0.00 58 1028.2
20181019065458 34 288 0.0 0.0 0.00 0.00 0.00 66 1028.3
20181019065156 34 288 0.0 0.0 0.00 0.00 0.00 67 1028.2
20181019064846 34 288 0.0 0.0 0.00 0.00 0.00 67 1028.2
20181019064545 34 288 0.0 0.0 0.00 0.00 0.00 67 1028.2
20181019064241 34 288 0.0 0.0 0.00 0.00 0.00 68 1028.2
20181019063618 34 288 0.0 0.0 0.00 0.00 0.00 72 1028.2
20181019062705 35 288 0.0 0.0 0.00 0.00 0.00 76 1028.2
20181019062356 35 288 0.0 0.0 0.00 0.00 0.00 77 1028.2
20181019062043 35 288 0.0 0.0 0.00 0.00 0.00 80 1028.2
20181019061735 35 288 0.0 0.0 0.00 0.00 0.00 81 1028.3
20181019061427 35 288 0.0 0.0 0.00 0.00 0.00 83 1028.3
20181019061123 35 288 0.0 0.0 0.00 0.00 0.00 84 1028.3
20181019060816 35 288 0.0 0.0 0.00 0.00 0.00 86 1028.3
20181019060519 35 288 0.0 0.0 0.00 0.00 0.00 85 1028.3
20181019060205 35 288 0.0 0.0 0.00 0.00 0.00 85 1028.3
20181019055556 36 288 0.0 0.0 0.00 0.00 0.00 86 1028.3
20181019055245 36 288 0.0 0.0 0.00 0.00 0.00 87 1028.3
20181019054943 35 288 0.0 0.0 0.00 0.00 0.00 88 1028.3
20181019054331 36 288 0.0 0.0 0.00 0.00 0.00 86 1028.4
20181019054031 36 288 0.0 0.0 0.00 0.00 0.00 86 1028.4
20181019053115 35 288 0.0 0.0 0.00 0.00 0.00 86 1028.5
20181019051228 35 288 0.0 0.0 0.00 0.00 0.00 83 1028.6
20181019050927 35 288 0.0 0.0 0.00 0.00 0.00 81 1028.7
20181019050628 35 288 0.0 0.0 0.00 0.00 0.00 79 1028.7
20181019050325 35 288 0.0 1.0 0.00 0.00 0.00 78 1028.8
20181019045725 35 288 0.0 1.0 0.00 0.00 0.00 77 1028.8
20181019045415 35 294 0.0 0.0 0.00 0.00 0.00 78 1028.8
20181019044806 35 294 0.0 0.0 0.00 0.00 0.00 77 1029.0
20181019044453 35 294 0.0 0.0 0.00 0.00 0.00 75 1028.9
20181019044154 35 294 0.0 0.0 0.00 0.00 0.00 75 1029.0
20181019043236 35 294 0.0 0.0 0.00 0.00 0.00 70 1029.0
20181019042938 35 294 0.0 0.0 0.00 0.00 0.00 68 1029.1
20181019041706 35 346 0.0 0.0 0.00 0.00 0.00 63 1029.1
20181019041406 35 346 0.0 0.0 0.00 0.00 0.00 63 1029.2
20181019041103 35 346 0.0 0.0 0.00 0.00 0.00 65 1029.2
20181019040802 35 346 0.0 0.0 0.00 0.00 0.00 66 1029.2
20181019040457 35 346 0.0 0.0 0.00 0.00 0.00 66 1029.3
20181019040201 35 346 0.0 0.0 0.00 0.00 0.00 68 1029.3
20181019035548 35 346 0.0 0.0 0.00 0.00 0.00 70 1029.4
20181019035238 35 346 0.0 0.0 0.00 0.00 0.00 70 1029.4
20181019034924 35 346 0.0 0.0 0.00 0.00 0.00 73 1029.3
20181019034625 35 346 0.0 0.0 0.00 0.00 0.00 75 1029.3
20181019034313 36 346 0.0 0.0 0.00 0.00 0.00 76 1029.3
20181019034015 36 346 0.0 0.0 0.00 0.00 0.00 76 1029.3
20181019033703 36 346 0.0 0.0 0.00 0.00 0.00 75 1029.3
20181019033406 36 346 0.0 0.0 0.00 0.00 0.00 74 1029.4
20181019032452 36 346 0.0 0.0 0.00 0.00 0.00 79 1029.5
20181019032151 36 346 0.0 0.0 0.00 0.00 0.00 84 1029.5
20181019031542 36 346 0.0 0.0 0.00 0.00 0.00 85 1029.5
20181019031243 36 346 0.0 0.0 0.00 0.00 0.00 84 1029.5
20181019030940 36 346 0.0 0.0 0.00 0.00 0.00 84 1029.6
20181019025718 36 346 0.0 0.0 0.00 0.00 0.00 86 1029.7
20181019024755 37 346 0.0 0.0 0.00 0.00 0.00 89 1029.7
20181019024446 37 346 0.0 0.0 0.00 0.00 0.00 90 1029.8
20181019023533 37 346 0.0 0.0 0.00 0.00 0.00 90 1029.8
20181019022312 37 346 0.0 0.0 0.00 0.00 0.00 90 1029.7
20181019021644 37 346 0.0 0.0 0.00 0.00 0.00 90 1029.8
20181019021333 37 346 0.0 0.0 0.00 0.00 0.00 90 1029.8
20181019021034 37 346 0.0 0.0 0.00 0.00 0.00 90 1029.8
20181019015517 37 346 0.0 0.0 0.00 0.00 0.00 90 1029.9
20181019013958 38 346 0.0 0.0 0.00 0.00 0.00 90 1029.9
20181019013337 38 346 0.0 0.0 0.00 0.00 0.00 90 1030.0
20181019012721 39 346 0.0 0.0 0.00 0.00 0.00 90 1030.1
20181019012421 39 346 0.0 0.0 0.00 0.00 0.00 90 1030.0
20181019011513 39 346 0.0 0.0 0.00 0.00 0.00 90 1030.0
20181019011159 39 346 0.0 0.0 0.00 0.00 0.00 90 1030.0
20181019010844 39 346 0.0 0.0 0.00 0.00 0.00 90 1030.0